Simultaneous Nadir Overpasses (SNOs) Predictions

Prediction of SNOs between GOES-14 and NOAA-20 Satellite Orbit:

Table of predicted SNOs for the next 14.0 days since TLE Epoch: 10/5/2024
Index Date Time (GOES-14) GOES-14 Lat,Lon NOAA-20 Lat,Lon Distance(km) Time Diff (sec)
1 10/05/2024 20:38:25 0.06,-108.48 -0.05,-108.99 58.07 80
2 10/06/2024 20:22:21 0.06,-108.49 0.96,-104.47 458.16 80
3 10/08/2024 08:44:11 -0.07,-108.55 0.19,-109.75 137.06 80
4 10/09/2024 08:22:48 -0.07,-108.55 -0.83,-105.23 378.49 80
5 10/10/2024 20:44:44 0.07,-108.49 -0.41,-110.53 233.33 80
6 10/11/2024 20:28:41 0.08,-108.49 0.63,-106.01 282.67 80
7 10/13/2024 08:50:30 -0.08,-108.55 0.54,-111.29 311.72 80
8 10/14/2024 08:29:06 -0.08,-108.55 -0.46,-106.76 204.06 80
9 10/15/2024 20:51:02 0.08,-108.49 -0.74,-112.06 407.92 80
10 10/16/2024 20:34:57 0.08,-108.49 0.26,-107.53 108.46 80
11 10/18/2024 08:56:47 -0.07,-108.56 0.86,-112.82 484.89 80
